Погода в Поводимове

Россия / Республика Мордовия     54°27′39″N   46°18′20″E
темп.,
°C
ветер,
м/с
пор.,
м/с
влажн.,
%
обл.,
%
осадки,
мм/ч
давл.,
гПа
погр.,
м
22 апреля, чт
чт2200:00+6ююз6119170 0.3 1018661
03:00+5ююв2496100 0.3 1019124
06:00+5ююв3895100 0.0 1021272
09:00+8ю688498 0.0 1021532
12:00+12ююз796264 0.3 10201502
15:00+13юз795737 1.4 10201518
18:00+11з36665 0.6 1021239
21:00+7з11796 0.6 102310
23 апреля, пт
пт2300:00+6ююз22812 0.0 102310
03:00+5ю22845 0.0 102410
06:00+6ю22815 0.0 102423
09:00+11ююв22595 0.0 1024416
12:00+14юв23464 0.0 10221675
15:00+15вюв3441100 0.0 10211984
18:00+13юв366092 0.0 1020178
21:00+9юв3777100 0.0 1019152
24 апреля, сб
сб2400:00+8вюв2281100 0.0 101832
03:00+8в2284100 0.0 101634
06:00+8в2484100 0.0 1014144
09:00+10вюв4469100 0.0 1013544
12:00+13юв3354100 0.1 10101462
15:00+13вюв555699 0.1 10081056
18:00+11юв5971100 0.4 1007491
21:00+7з5791100 5.3 1007495
25 апреля, вс
вс2500:00+4з71088100 2.4 1008707
03:00+4з697749 2.4 1009894
06:00+4з498899 0.0 1010415
09:00+7з5763100 0.0 10101080
12:00+9з6747100 0.1 10122006
15:00+10зюз564280 0.1 10122033
18:00+7з5769100 0.6 1014871
21:00+5зюз5107269 1.3 1015390
26 апреля, пн
пн2600:00+3юз411793 0.0 1016295
03:00+2юз511840 0.0 1017339
06:00+2юз410794 0.0 1018325
09:00+7зюз6106346 0.0 10181336
12:00+9юз6952100 0.1 10171949
15:00+9юз6105777 0.6 10161576
18:00+8зюз4866100 0.5 1015422
21:00+6ююв2274100 0.5 101413